Epoch 2001 June 20.0 TT = JDT 2452080.5
T 2001 June 5.72977 TT MPC
q 1.5681089 (2000.0) P Q
n 0.14559602 Peri. 233.59531 +0.98406407 +0.11980790
a 3.5785167 Node 119.18297 -0.07125590 +0.94270802
e 0.5617992 Incl. 8.65563 -0.16291259 +0.31136418
P 6.77
From 788 observations 1994 May 1-2009 Feb. 21, mean residual 1".1.
Nongravitational parameters A1 = +3.72, A2 = +0.0724.
Finding Charts
Magnitudes Graph
m1 = 7.6 + 5 log d + 30.0 log r [ ,110] ( - 2001 Sept.23)
m1 = 4.7 + 5 log d + 30.0 log r [110,130] (2001 Sept.23 - 2001 Oct. 13)
m1 = -7.5 + 5 log d + 70.0 log r [130,184] (2001 Oct. 13 - 2001 Dec. 6)
m1 = 4.0 + 5 log d + 30.0 log r [184, ] (2001 Dec. 6 - )
The orbital elements are published on M.P.E.C. 2012-J16.
The charts are made with StellaNavigator Ver.2.0 for Windows
(AstroArts / ASCII).
The magnitudes graphs are made with Comet for Windows.
Copyright(C) Seiichi Yoshida (comet@aerith.net). All rights reserved.